Time,TemperatureF,DewpointF,PressureIn,WindDirection,WindDirectionDegrees,WindSpeedMPH,WindSpeedGustMPH,Humidity,HourlyPrecipIn,Conditions,Clouds,dailyrainin,SoftwareType,DateUTC
2013-03-06 00:00:00,34.7,33.0,30.15,ENE,67,9.8,18.0,97,0.00,,,0.02,Rainwise IP-100,2013-03-06 05:00:00,
2013-03-06 00:05:00,34.8,33.0,30.16,ENE,67,13.1,15.6,97,0.00,,,0.00,Rainwise IP-100,2013-03-06 05:05:00,
2013-03-06 00:10:00,34.8,33.0,30.16,ENE,67,13.1,16.6,97,0.00,,,0.00,Rainwise IP-100,2013-03-06 05:10:00,
2013-03-06 00:15:00,34.8,33.0,30.16,ENE,67,5.1,18.2,97,0.00,,,0.00,Rainwise IP-100,2013-03-06 05:15:00,
2013-03-06 00:20:00,34.8,33.0,30.16,ENE,67,8.6,17.3,97,0.00,,,0.00,Rainwise IP-100,2013-03-06 05:20:00,
2013-03-06 00:25:00,34.8,33.0,30.16,ENE,67,11.7,14.2,97,0.00,,,0.00,Rainwise IP-100,2013-03-06 05:25:00,
2013-03-06 00:30:00,34.7,33.0,30.17,ENE,67,8.9,13.3,97,0.00,,,0.00,Rainwise IP-100,2013-03-06 05:30:00,
2013-03-06 00:35:00,34.7,33.0,30.16,ENE,67,11.4,14.0,97,0.00,,,0.00,Rainwise IP-100,2013-03-06 05:35:00,
2013-03-06 00:40:00,34.7,33.0,30.17,North,360,5.8,15.6,97,0.00,,,0.00,Rainwise IP-100,2013-03-06 05:40:00,
2013-03-06 00:45:00,34.7,33.0,30.17,ENE,67,4.9,10.3,97,0.00,,,0.00,Rainwise IP-100,2013-03-06 05:45:00,
2013-03-06 00:50:00,34.7,33.0,30.17,NE,45,7.7,13.8,97,0.00,,,0.00,Rainwise IP-100,2013-03-06 05:50:00,
2013-03-06 00:55:00,34.7,33.0,30.18,ENE,67,5.1,12.4,97,0.00,,,0.00,Rainwise IP-100,2013-03-06 05:55:00,
2013-03-06 01:00:00,34.7,33.0,30.18,NNE,22,7.5,14.0,97,0.00,,,0.00,Rainwise IP-100,2013-03-06 06:00:00,
2013-03-06 01:05:00,34.7,33.0,30.17,NE,45,5.1,13.5,96,0.00,,,0.00,Rainwise IP-100,2013-03-06 06:05:00,
2013-03-06 01:10:00,34.7,33.0,30.18,NNE,22,5.4,13.1,96,0.00,,,0.00,Rainwise IP-100,2013-03-06 06:10:00,
2013-03-06 01:15:00,34.7,33.0,30.18,ENE,67,6.5,15.2,96,0.00,,,0.00,Rainwise IP-100,2013-03-06 06:15:00,
2013-03-06 01:20:00,34.7,33.0,30.18,ENE,67,7.9,16.6,96,0.00,,,0.00,Rainwise IP-100,2013-03-06 06:20:00,
2013-03-06 01:25:00,34.7,33.0,30.18,ENE,67,11.0,16.8,95,0.00,,,0.00,Rainwise IP-100,2013-03-06 06:25:00,
2013-03-06 01:30:00,34.8,33.0,30.18,ENE,67,11.0,20.8,95,0.00,,,0.00,Rainwise IP-100,2013-03-06 06:30:00,
2013-03-06 01:31:00,34.8,33.0,30.18,NNE,22,2.8,16.3,95,0.00,,,0.00,Rainwise IP-100,2013-03-06 06:31:00,
2013-03-06 01:36:00,34.8,33.0,30.18,ENE,67,4.7,14.2,95,0.00,,,0.00,Rainwise IP-100,2013-03-06 06:36:00,
2013-03-06 01:41:00,34.8,33.0,30.18,NE,45,8.2,18.0,94,0.00,,,0.00,Rainwise IP-100,2013-03-06 06:41:00,
2013-03-06 01:46:00,34.8,33.0,30.19,NE,45,6.8,13.5,94,0.00,,,0.00,Rainwise IP-100,2013-03-06 06:46:00,
2013-03-06 01:51:00,34.8,33.0,30.19,NE,45,8.4,13.1,94,0.00,,,0.00,Rainwise IP-100,2013-03-06 06:51:00,
2013-03-06 01:56:00,34.8,33.0,30.19,NNE,22,8.2,15.4,94,0.00,,,0.00,Rainwise IP-100,2013-03-06 06:56:00,
2013-03-06 02:01:00,34.8,33.0,30.19,NE,45,8.2,14.5,94,0.00,,,0.00,Rainwise IP-100,2013-03-06 07:01:00,
2013-03-06 02:06:00,34.7,33.0,30.19,NE,45,4.2,13.8,93,0.00,,,0.00,Rainwise IP-100,2013-03-06 07:06:00,
2013-03-06 02:11:00,34.7,33.0,30.19,ENE,67,13.8,18.4,93,0.00,,,0.00,Rainwise IP-100,2013-03-06 07:11:00,
2013-03-06 02:16:00,34.7,33.0,30.19,ENE,67,3.5,17.0,93,0.00,,,0.00,Rainwise IP-100,2013-03-06 07:16:00,
2013-03-06 02:21:00,34.6,33.0,30.19,NNE,22,2.6,18.0,93,0.00,,,0.00,Rainwise IP-100,2013-03-06 07:21:00,
2013-03-06 02:26:00,34.5,33.0,30.19,NE,45,5.8,18.0,93,0.00,,,0.00,Rainwise IP-100,2013-03-06 07:26:00,
2013-03-06 02:31:00,34.4,33.0,30.20,East,90,2.8,12.8,94,0.00,,,0.00,Rainwise IP-100,2013-03-06 07:31:00,
2013-03-06 02:36:00,34.3,33.0,30.20,NNE,22,9.8,14.0,94,0.00,,,0.00,Rainwise IP-100,2013-03-06 07:36:00,
2013-03-06 02:41:00,34.3,33.0,30.20,NE,45,4.2,16.3,94,0.00,,,0.00,Rainwise IP-100,2013-03-06 07:41:00,
2013-03-06 02:46:00,34.3,33.0,30.20,NNE,22,4.2,16.8,94,0.00,,,0.00,Rainwise IP-100,2013-03-06 07:46:00,
2013-03-06 02:51:00,34.3,33.0,30.20,ENE,67,6.1,13.5,94,0.00,,,0.00,Rainwise IP-100,2013-03-06 07:51:00,
2013-03-06 02:56:00,34.3,33.0,30.20,NE,45,6.5,16.1,94,0.00,,,0.00,Rainwise IP-100,2013-03-06 07:56:00,
2013-03-06 03:00:00,34.3,33.0,30.21,NNE,22,4.9,14.0,94,0.00,,,0.00,Rainwise IP-100,2013-03-06 08:00:00,
2013-03-06 03:05:00,34.3,33.0,30.20,NNE,22,9.8,15.4,94,0.00,,,0.00,Rainwise IP-100,2013-03-06 08:05:00,
2013-03-06 03:10:00,34.3,33.0,30.20,NNE,22,9.8,19.8,94,0.00,,,0.00,Rainwise IP-100,2013-03-06 08:10:00,
2013-03-06 03:15:00,34.1,33.0,30.21,NE,45,6.8,15.9,94,0.00,,,0.00,Rainwise IP-100,2013-03-06 08:15:00,
2013-03-06 03:20:00,34.0,33.0,30.21,NE,45,8.4,15.6,94,0.00,,,0.00,Rainwise IP-100,2013-03-06 08:20:00,
2013-03-06 03:25:00,33.9,33.0,30.21,ENE,67,8.9,15.9,94,0.00,,,0.00,Rainwise IP-100,2013-03-06 08:25:00,
2013-03-06 03:30:00,33.8,33.0,30.21,NNE,22,7.9,14.2,94,0.00,,,0.00,Rainwise IP-100,2013-03-06 08:30:00,
2013-03-06 03:35:00,33.8,33.0,30.21,NNE,22,4.7,12.4,94,0.00,,,0.00,Rainwise IP-100,2013-03-06 08:35:00,
2013-03-06 03:40:00,33.8,33.0,30.22,NNE,22,0.0,12.1,94,0.00,,,0.00,Rainwise IP-100,2013-03-06 08:40:00,
2013-03-06 03:45:00,33.8,33.0,30.22,ENE,67,7.2,12.4,94,0.00,,,0.00,Rainwise IP-100,2013-03-06 08:45:00,
2013-03-06 03:50:00,33.8,33.0,30.22,NE,45,4.2,13.5,94,0.00,,,0.00,Rainwise IP-100,2013-03-06 08:50:00,
2013-03-06 03:55:00,33.8,33.0,30.22,NNW,337,6.1,13.1,93,0.00,,,0.00,Rainwise IP-100,2013-03-06 08:55:00,
2013-03-06 04:00:00,33.8,33.0,30.23,NNE,22,11.9,11.9,93,0.00,,,0.00,Rainwise IP-100,2013-03-06 09:00:00,
2013-03-06 04:05:00,33.8,33.0,30.23,NNE,22,5.1,12.8,93,0.00,,,0.00,Rainwise IP-100,2013-03-06 09:05:00,
2013-03-06 04:10:00,33.8,33.0,30.23,ENE,67,2.6,17.0,93,0.00,,,0.00,Rainwise IP-100,2013-03-06 09:10:00,
2013-03-06 04:15:00,33.8,33.0,30.23,NNE,22,5.4,11.7,93,0.00,,,0.00,Rainwise IP-100,2013-03-06 09:15:00,
2013-03-06 04:20:00,33.8,33.0,30.23,NNE,22,8.4,16.3,93,0.00,,,0.00,Rainwise IP-100,2013-03-06 09:20:00,
2013-03-06 04:25:00,33.8,33.0,30.24,NNE,22,14.9,14.9,93,0.00,,,0.00,Rainwise IP-100,2013-03-06 09:25:00,
2013-03-06 04:30:00,33.8,33.0,30.23,NNE,22,6.8,16.8,93,0.00,,,0.00,Rainwise IP-100,2013-03-06 09:30:00,
2013-03-06 04:35:00,33.8,33.0,30.23,ENE,67,9.1,15.4,93,0.00,,,0.00,Rainwise IP-100,2013-03-06 09:35:00,
2013-03-06 04:40:00,33.8,33.0,30.24,ENE,67,7.2,14.0,93,0.00,,,0.00,Rainwise IP-100,2013-03-06 09:40:00,
2013-03-06 04:45:00,33.7,33.0,30.24,NNE,22,8.9,10.7,93,0.00,,,0.00,Rainwise IP-100,2013-03-06 09:45:00,
2013-03-06 04:50:00,33.7,33.0,30.24,North,360,5.4,12.8,93,0.00,,,0.00,Rainwise IP-100,2013-03-06 09:50:00,
2013-03-06 04:55:00,33.5,33.0,30.24,NNE,22,4.4,11.4,93,0.00,,,0.00,Rainwise IP-100,2013-03-06 09:55:00,
2013-03-06 05:00:00,33.5,33.0,30.25,NNE,22,4.7,14.0,93,0.00,,,0.00,Rainwise IP-100,2013-03-06 10:00:00,
2013-03-06 05:05:00,33.5,33.0,30.25,ENE,67,6.5,10.7,93,0.00,,,0.00,Rainwise IP-100,2013-03-06 10:05:00,
2013-03-06 05:11:00,33.4,32.0,30.25,ENE,67,8.2,9.8,93,0.00,,,0.00,Rainwise IP-100,2013-03-06 10:11:00,
2013-03-06 05:16:00,33.2,32.0,30.25,NNE,22,4.9,11.2,93,0.00,,,0.00,Rainwise IP-100,2013-03-06 10:16:00,
2013-03-06 05:21:00,33.2,32.0,30.25,NNE,22,11.0,12.4,93,0.00,,,0.00,Rainwise IP-100,2013-03-06 10:21:00,
2013-03-06 05:26:00,33.1,32.0,30.25,ENE,67,2.3,11.9,93,0.00,,,0.00,Rainwise IP-100,2013-03-06 10:26:00,
2013-03-06 05:31:00,32.9,32.0,30.25,NNE,22,8.6,10.0,93,0.00,,,0.00,Rainwise IP-100,2013-03-06 10:31:00,
2013-03-06 05:36:00,32.9,32.0,30.25,NNE,22,5.1,10.0,93,0.00,,,0.00,Rainwise IP-100,2013-03-06 10:36:00,
2013-03-06 05:41:00,32.9,32.0,30.26,ENE,67,5.1,13.1,93,0.00,,,0.00,Rainwise IP-100,2013-03-06 10:41:00,
2013-03-06 05:46:00,32.8,32.0,30.26,NNW,337,8.2,13.8,93,0.00,,,0.00,Rainwise IP-100,2013-03-06 10:46:00,
2013-03-06 05:51:00,32.7,32.0,30.26,North,360,7.7,10.3,93,0.00,,,0.00,Rainwise IP-100,2013-03-06 10:51:00,
2013-03-06 05:56:00,32.6,32.0,30.25,NE,45,10.0,13.3,93,0.00,,,0.00,Rainwise IP-100,2013-03-06 10:56:00,
2013-03-06 06:01:00,32.6,32.0,30.25,NNE,22,5.4,14.5,93,0.00,,,0.00,Rainwise IP-100,2013-03-06 11:01:00,
2013-03-06 06:06:00,32.7,32.0,30.25,ENE,67,3.0,12.4,93,0.00,,,0.00,Rainwise IP-100,2013-03-06 11:06:00,
2013-03-06 06:11:00,32.8,31.0,30.26,NNE,22,4.7,15.2,92,0.00,,,0.00,Rainwise IP-100,2013-03-06 11:11:00,
2013-03-06 06:16:00,32.7,31.0,30.25,NNE,22,4.4,15.2,92,0.00,,,0.00,Rainwise IP-100,2013-03-06 11:16:00,
2013-03-06 06:21:00,32.7,31.0,30.25,ENE,67,3.5,15.6,92,0.00,,,0.00,Rainwise IP-100,2013-03-06 11:21:00,
2013-03-06 06:26:00,32.6,31.0,30.25,East,90,5.1,13.1,92,0.00,,,0.00,Rainwise IP-100,2013-03-06 11:26:00,
2013-03-06 06:31:00,32.5,31.0,30.25,NE,45,8.6,19.1,92,0.00,,,0.00,Rainwise IP-100,2013-03-06 11:31:00,
2013-03-06 06:36:00,32.5,31.0,30.25,ENE,67,6.5,16.3,92,0.00,,,0.00,Rainwise IP-100,2013-03-06 11:36:00,
2013-03-06 06:41:00,32.5,31.0,30.25,NE,45,13.1,16.1,92,0.00,,,0.00,Rainwise IP-100,2013-03-06 11:41:00,
2013-03-06 06:46:00,32.5,31.0,30.25,NE,45,6.8,19.1,91,0.00,,,0.00,Rainwise IP-100,2013-03-06 11:46:00,
2013-03-06 06:51:00,32.6,31.0,30.25,NE,45,6.5,18.9,91,0.00,,,0.00,Rainwise IP-100,2013-03-06 11:51:00,
2013-03-06 06:56:00,32.6,31.0,30.25,ENE,67,11.7,18.7,91,0.00,,,0.00,Rainwise IP-100,2013-03-06 11:56:00,
2013-03-06 07:01:00,32.6,31.0,30.25,ENE,67,9.6,16.6,91,0.00,,,0.00,Rainwise IP-100,2013-03-06 12:01:00,
2013-03-06 07:06:00,32.7,31.0,30.25,NE,45,6.5,15.4,91,0.00,,,0.00,Rainwise IP-100,2013-03-06 12:06:00,
2013-03-06 07:11:00,32.7,31.0,30.25,NNE,22,7.2,18.2,91,0.00,,,0.00,Rainwise IP-100,2013-03-06 12:11:00,
2013-03-06 07:16:00,32.8,31.0,30.25,WNW,292,3.0,16.8,91,0.00,,,0.00,Rainwise IP-100,2013-03-06 12:16:00,
2013-03-06 07:21:00,32.8,31.0,30.26,NE,45,11.2,17.0,91,0.00,,,0.00,Rainwise IP-100,2013-03-06 12:21:00,
2013-03-06 07:26:00,33.1,31.0,30.25,ENE,67,7.5,21.2,90,0.00,,,0.00,Rainwise IP-100,2013-03-06 12:26:00,
2013-03-06 07:31:00,33.3,31.0,30.25,ENE,67,10.3,19.4,90,0.00,,,0.00,Rainwise IP-100,2013-03-06 12:31:00,
2013-03-06 07:36:00,33.4,31.0,30.26,ENE,67,9.8,21.5,89,0.00,,,0.00,Rainwise IP-100,2013-03-06 12:36:00,
2013-03-06 07:41:00,33.5,32.0,30.26,ENE,67,13.5,21.5,89,0.00,,,0.00,Rainwise IP-100,2013-03-06 12:41:00,
2013-03-06 07:46:00,33.5,32.0,30.26,ESE,112,7.0,18.7,89,0.00,,,0.00,Rainwise IP-100,2013-03-06 12:46:00,
2013-03-06 07:51:00,33.5,32.0,30.25,ENE,67,15.6,21.5,89,0.00,,,0.00,Rainwise IP-100,2013-03-06 12:51:00,
2013-03-06 07:56:00,33.5,32.0,30.26,ENE,67,10.0,24.2,89,0.00,,,0.00,Rainwise IP-100,2013-03-06 12:56:00,
2013-03-06 08:01:00,33.6,32.0,30.26,ENE,67,12.4,22.4,89,0.00,,,0.00,Rainwise IP-100,2013-03-06 13:01:00,
2013-03-06 08:06:00,33.6,32.0,30.25,NE,45,11.9,21.5,89,0.00,,,0.00,Rainwise IP-100,2013-03-06 13:06:00,
2013-03-06 08:11:00,33.7,32.0,30.26,East,90,14.5,22.4,88,0.00,,,0.00,Rainwise IP-100,2013-03-06 13:11:00,
2013-03-06 08:16:00,33.8,32.0,30.26,ENE,67,15.9,20.8,88,0.00,,,0.00,Rainwise IP-100,2013-03-06 13:16:00,
2013-03-06 08:21:00,33.9,32.0,30.26,ENE,67,12.1,23.8,88,0.00,,,0.00,Rainwise IP-100,2013-03-06 13:21:00,
2013-03-06 08:26:00,34.2,31.0,30.26,ENE,67,12.4,22.4,87,0.00,,,0.00,Rainwise IP-100,2013-03-06 13:26:00,
2013-03-06 08:31:00,34.4,31.0,30.26,ENE,67,10.0,20.5,87,0.00,,,0.00,Rainwise IP-100,2013-03-06 13:31:00,
2013-03-06 08:36:00,34.4,31.0,30.26,ENE,67,14.5,24.5,86,0.00,,,0.00,Rainwise IP-100,2013-03-06 13:36:00,
2013-03-06 08:41:00,34.4,31.0,30.26,NE,45,12.1,21.7,86,0.00,,,0.00,Rainwise IP-100,2013-03-06 13:41:00,
2013-03-06 08:46:00,34.5,31.0,30.26,NNE,22,4.2,28.2,86,0.00,,,0.00,Rainwise IP-100,2013-03-06 13:46:00,
2013-03-06 08:51:00,34.7,31.0,30.26,NE,45,20.5,23.3,86,0.00,,,0.00,Rainwise IP-100,2013-03-06 13:51:00,
2013-03-06 08:56:00,34.7,31.0,30.26,ENE,67,3.0,28.9,86,0.00,,,0.00,Rainwise IP-100,2013-03-06 13:56:00,
2013-03-06 09:01:00,34.7,31.0,30.26,ENE,67,12.6,25.6,86,0.00,,,0.00,Rainwise IP-100,2013-03-06 14:01:00,
2013-03-06 09:06:00,34.7,31.0,30.27,ENE,67,13.3,21.9,86,0.00,,,0.00,Rainwise IP-100,2013-03-06 14:06:00,
2013-03-06 09:11:00,34.8,31.0,30.27,NE,45,12.4,23.8,86,0.00,,,0.00,Rainwise IP-100,2013-03-06 14:11:00,
2013-03-06 09:16:00,34.8,31.0,30.28,ENE,67,15.2,24.7,86,0.00,,,0.00,Rainwise IP-100,2013-03-06 14:16:00,
2013-03-06 09:21:00,34.9,31.0,30.27,ENE,67,15.4,21.2,86,0.00,,,0.00,Rainwise IP-100,2013-03-06 14:21:00,
2013-03-06 09:26:00,35.0,31.0,30.27,ENE,67,11.4,21.0,86,0.00,,,0.00,Rainwise IP-100,2013-03-06 14:26:00,
2013-03-06 09:31:00,35.1,31.0,30.27,ESE,112,13.5,22.4,86,0.00,,,0.00,Rainwise IP-100,2013-03-06 14:31:00,
2013-03-06 09:36:00,35.2,31.0,30.27,ENE,67,9.3,22.2,85,0.00,,,0.00,Rainwise IP-100,2013-03-06 14:36:00,
2013-03-06 09:41:00,35.3,31.0,30.27,ENE,67,12.8,24.9,85,0.00,,,0.00,Rainwise IP-100,2013-03-06 14:41:00,
2013-03-06 09:46:00,35.5,32.0,30.27,ENE,67,12.6,21.9,84,0.00,,,0.00,Rainwise IP-100,2013-03-06 14:46:00,
2013-03-06 09:51:00,35.6,32.0,30.27,ENE,67,13.5,21.2,84,0.00,,,0.00,Rainwise IP-100,2013-03-06 14:51:00,
2013-03-06 09:56:00,35.7,32.0,30.27,ENE,67,5.8,23.1,84,0.00,,,0.00,Rainwise IP-100,2013-03-06 14:56:00,
2013-03-06 10:01:00,35.9,31.0,30.27,ENE,67,12.1,25.2,83,0.00,,,0.00,Rainwise IP-100,2013-03-06 15:01:00,
2013-03-06 10:06:00,35.9,31.0,30.27,ENE,67,9.6,20.3,83,0.00,,,0.00,Rainwise IP-100,2013-03-06 15:06:00,
2013-03-06 10:11:00,36.1,31.0,30.27,ENE,67,14.0,19.8,82,0.00,,,0.00,Rainwise IP-100,2013-03-06 15:11:00,
2013-03-06 10:16:00,36.4,31.0,30.25,SSE,157,14.9,25.2,82,0.00,,,0.00,Rainwise IP-100,2013-03-06 15:16:00,
2013-03-06 10:21:00,36.4,31.0,30.27,East,90,14.0,28.2,81,0.00,,,0.00,Rainwise IP-100,2013-03-06 15:21:00,
2013-03-06 10:26:00,36.4,31.0,30.27,NNE,22,10.5,21.9,80,0.00,,,0.00,Rainwise IP-100,2013-03-06 15:26:00,
2013-03-06 10:31:00,36.3,31.0,30.27,ENE,67,11.0,20.8,79,0.00,,,0.00,Rainwise IP-100,2013-03-06 15:31:00,
2013-03-06 10:36:00,36.2,31.0,30.27,ESE,112,7.5,19.4,80,0.00,,,0.00,Rainwise IP-100,2013-03-06 15:36:00,
2013-03-06 10:41:00,35.6,31.0,30.28,SE,135,7.9,29.1,82,0.00,,,0.00,Rainwise IP-100,2013-03-06 15:41:00,
2013-03-06 10:46:00,34.3,31.0,30.28,SE,135,2.1,20.3,87,0.00,,,0.00,Rainwise IP-100,2013-03-06 15:46:00,
2013-03-06 10:51:00,33.4,31.0,30.28,ESE,112,18.9,26.1,91,0.00,,,0.00,Rainwise IP-100,2013-03-06 15:51:00,
2013-03-06 10:56:00,33.0,32.0,30.28,ESE,112,12.8,20.1,93,0.00,,,0.00,Rainwise IP-100,2013-03-06 15:56:00,
2013-03-06 11:01:00,32.9,32.0,30.28,ESE,112,12.4,20.1,94,0.00,,,0.00,Rainwise IP-100,2013-03-06 16:01:00,
2013-03-06 11:06:00,33.1,32.0,30.28,ESE,112,3.3,19.1,94,0.00,,,0.00,Rainwise IP-100,2013-03-06 16:06:00,
2013-03-06 11:11:00,33.4,32.0,30.29,ENE,67,6.8,19.6,94,0.00,,,0.00,Rainwise IP-100,2013-03-06 16:11:00,
2013-03-06 11:16:00,33.2,32.0,30.29,East,90,16.3,18.0,95,0.00,,,0.00,Rainwise IP-100,2013-03-06 16:16:00,
2013-03-06 11:21:00,32.8,32.0,30.29,ESE,112,16.3,21.9,95,0.00,,,0.00,Rainwise IP-100,2013-03-06 16:21:00,
2013-03-06 11:26:00,32.8,32.0,30.30,East,90,8.2,19.6,96,0.00,,,0.00,Rainwise IP-100,2013-03-06 16:26:00,
2013-03-06 11:31:00,32.9,32.0,30.30,ESE,112,14.2,22.6,95,0.00,,,0.00,Rainwise IP-100,2013-03-06 16:31:00,
2013-03-06 11:36:00,33.1,32.0,30.31,SE,135,11.4,21.2,95,0.00,,,0.00,Rainwise IP-100,2013-03-06 16:36:00,
2013-03-06 11:41:00,33.3,32.0,30.30,ESE,112,8.6,17.5,95,0.00,,,0.00,Rainwise IP-100,2013-03-06 16:41:00,
2013-03-06 11:46:00,33.5,33.0,30.31,ESE,112,13.3,19.4,94,0.00,,,0.00,Rainwise IP-100,2013-03-06 16:46:00,
2013-03-06 11:51:00,33.7,33.0,30.31,ENE,67,5.1,18.2,94,0.00,,,0.00,Rainwise IP-100,2013-03-06 16:51:00,
2013-03-06 11:56:00,33.9,33.0,30.31,ESE,112,8.2,15.4,94,0.00,,,0.00,Rainwise IP-100,2013-03-06 16:56:00,
2013-03-06 12:01:00,34.0,33.0,30.30,SE,135,11.9,21.9,93,0.00,,,0.00,Rainwise IP-100,2013-03-06 17:01:00,
2013-03-06 12:06:00,33.9,33.0,30.30,ESE,112,9.3,24.7,94,0.00,,,0.00,Rainwise IP-100,2013-03-06 17:06:00,
2013-03-06 12:11:00,33.7,33.0,30.30,East,90,10.0,21.7,93,0.00,,,0.00,Rainwise IP-100,2013-03-06 17:11:00,
2013-03-06 12:16:00,33.7,33.0,30.30,ENE,67,11.0,17.3,93,0.00,,,0.00,Rainwise IP-100,2013-03-06 17:16:00,
2013-03-06 12:21:00,33.7,32.0,30.29,East,90,10.7,17.3,92,0.00,,,0.00,Rainwise IP-100,2013-03-06 17:21:00,
2013-03-06 12:26:00,33.8,32.0,30.29,ENE,67,7.7,21.9,92,0.00,,,0.00,Rainwise IP-100,2013-03-06 17:26:00,
2013-03-06 12:31:00,33.9,32.0,30.29,ESE,112,8.4,19.1,90,0.00,,,0.00,Rainwise IP-100,2013-03-06 17:31:00,
2013-03-06 12:36:00,34.0,32.0,30.30,ENE,67,10.7,23.8,88,0.00,,,0.00,Rainwise IP-100,2013-03-06 17:36:00,
2013-03-06 12:41:00,33.9,32.0,30.30,East,90,13.5,21.7,88,0.00,,,0.00,Rainwise IP-100,2013-03-06 17:41:00,
2013-03-06 12:46:00,33.7,32.0,30.30,ENE,67,8.6,21.9,88,0.00,,,0.00,Rainwise IP-100,2013-03-06 17:46:00,
2013-03-06 12:51:00,33.7,32.0,30.29,ESE,112,6.3,25.2,88,0.00,,,0.00,Rainwise IP-100,2013-03-06 17:51:00,
2013-03-06 12:56:00,33.8,32.0,30.29,ENE,67,6.3,16.8,88,0.00,,,0.00,Rainwise IP-100,2013-03-06 17:56:00,
2013-03-06 13:01:00,33.9,31.0,30.30,East,90,4.9,24.5,87,0.00,,,0.00,Rainwise IP-100,2013-03-06 18:01:00,
2013-03-06 13:06:00,34.1,31.0,30.29,ENE,67,6.3,23.8,85,0.00,,,0.00,Rainwise IP-100,2013-03-06 18:06:00,
2013-03-06 13:11:00,34.2,31.0,30.29,NE,45,19.8,21.9,84,0.00,,,0.00,Rainwise IP-100,2013-03-06 18:11:00,
2013-03-06 13:16:00,34.4,31.0,30.29,ENE,67,10.5,22.9,83,0.00,,,0.00,Rainwise IP-100,2013-03-06 18:16:00,
2013-03-06 13:21:00,34.5,29.0,30.29,NE,45,11.9,25.4,81,0.00,,,0.00,Rainwise IP-100,2013-03-06 18:21:00,
2013-03-06 13:26:00,34.5,29.0,30.29,ESE,112,8.6,22.6,81,0.00,,,0.00,Rainwise IP-100,2013-03-06 18:26:00,
2013-03-06 13:31:00,34.5,29.0,30.28,ESE,112,9.6,27.0,80,0.00,,,0.00,Rainwise IP-100,2013-03-06 18:31:00,
2013-03-06 13:36:00,34.4,29.0,30.29,ENE,67,9.6,21.2,80,0.00,,,0.00,Rainwise IP-100,2013-03-06 18:36:00,
2013-03-06 13:41:00,34.3,29.0,30.27,ENE,67,21.2,23.8,81,0.00,,,0.00,Rainwise IP-100,2013-03-06 18:41:00,
2013-03-06 13:46:00,34.0,29.0,30.28,ENE,67,18.0,28.2,81,0.00,,,0.00,Rainwise IP-100,2013-03-06 18:46:00,
2013-03-06 13:51:00,33.9,29.0,30.29,ENE,67,5.1,26.6,82,0.00,,,0.00,Rainwise IP-100,2013-03-06 18:51:00,
2013-03-06 13:56:00,33.9,31.0,30.29,ENE,67,5.4,20.1,83,0.00,,,0.00,Rainwise IP-100,2013-03-06 18:56:00,
2013-03-06 14:01:00,33.9,31.0,30.28,ENE,67,8.2,27.0,83,0.00,,,0.00,Rainwise IP-100,2013-03-06 19:01:00,
2013-03-06 14:06:00,33.9,31.0,30.28,ENE,67,9.3,24.0,83,0.00,,,0.00,Rainwise IP-100,2013-03-06 19:06:00,
2013-03-06 14:11:00,33.9,31.0,30.28,ENE,67,15.2,23.6,83,0.00,,,0.00,Rainwise IP-100,2013-03-06 19:11:00,
2013-03-06 14:16:00,33.8,31.0,30.29,ENE,67,12.1,27.5,84,0.00,,,0.00,Rainwise IP-100,2013-03-06 19:16:00,
2013-03-06 14:21:00,33.8,31.0,30.28,ENE,67,7.2,22.4,84,0.00,,,0.00,Rainwise IP-100,2013-03-06 19:21:00,
2013-03-06 14:26:00,33.8,31.0,30.28,ENE,67,9.6,21.7,84,0.00,,,0.00,Rainwise IP-100,2013-03-06 19:26:00,
2013-03-06 14:31:00,33.8,31.0,30.27,NE,45,22.6,26.1,84,0.00,,,0.00,Rainwise IP-100,2013-03-06 19:31:00,
2013-03-06 14:36:00,33.8,31.0,30.28,ENE,67,14.2,22.9,83,0.00,,,0.00,Rainwise IP-100,2013-03-06 19:36:00,
2013-03-06 14:41:00,33.8,31.0,30.27,NE,45,15.4,24.7,83,0.00,,,0.00,Rainwise IP-100,2013-03-06 19:41:00,
2013-03-06 14:46:00,33.8,31.0,30.27,ENE,67,18.7,25.2,83,0.00,,,0.00,Rainwise IP-100,2013-03-06 19:46:00,
2013-03-06 14:51:00,33.8,29.0,30.28,ENE,67,7.0,24.0,82,0.00,,,0.00,Rainwise IP-100,2013-03-06 19:51:00,
2013-03-06 14:56:00,33.9,29.0,30.27,ENE,67,19.1,28.7,81,0.00,,,0.00,Rainwise IP-100,2013-03-06 19:56:00,
2013-03-06 15:01:00,33.9,29.0,30.28,ENE,67,9.1,27.0,81,0.00,,,0.00,Rainwise IP-100,2013-03-06 20:01:00,
2013-03-06 15:06:00,34.0,29.0,30.27,NE,45,19.4,29.8,81,0.00,,,0.00,Rainwise IP-100,2013-03-06 20:06:00,
2013-03-06 15:11:00,34.0,29.0,30.27,ENE,67,9.8,27.3,81,0.00,,,0.00,Rainwise IP-100,2013-03-06 20:11:00,
2013-03-06 15:16:00,34.1,29.0,30.27,ESE,112,13.5,22.4,80,0.00,,,0.00,Rainwise IP-100,2013-03-06 20:16:00,
2013-03-06 15:21:00,34.0,29.0,30.28,ENE,67,11.9,16.8,81,0.00,,,0.00,Rainwise IP-100,2013-03-06 20:21:00,
2013-03-06 15:26:00,34.0,29.0,30.28,ENE,67,7.9,22.2,81,0.00,,,0.00,Rainwise IP-100,2013-03-06 20:26:00,
2013-03-06 15:31:00,33.9,29.0,30.28,East,90,11.0,20.3,81,0.00,,,0.00,Rainwise IP-100,2013-03-06 20:31:00,
2013-03-06 15:36:00,33.9,29.0,30.29,East,90,4.4,19.1,81,0.00,,,0.00,Rainwise IP-100,2013-03-06 20:36:00,
2013-03-06 15:41:00,34.0,29.0,30.29,ESE,112,2.3,17.5,81,0.00,,,0.00,Rainwise IP-100,2013-03-06 20:41:00,
2013-03-06 15:46:00,34.0,29.0,30.29,ENE,67,10.0,17.5,80,0.00,,,0.00,Rainwise IP-100,2013-03-06 20:46:00,
2013-03-06 15:51:00,33.9,29.0,30.28,ENE,67,19.4,25.9,80,0.00,,,0.00,Rainwise IP-100,2013-03-06 20:51:00,
2013-03-06 15:56:00,33.9,29.0,30.28,ENE,67,13.3,21.5,80,0.00,,,0.00,Rainwise IP-100,2013-03-06 20:56:00,
2013-03-06 16:01:00,33.9,29.0,30.28,NE,45,15.2,18.7,80,0.00,,,0.00,Rainwise IP-100,2013-03-06 21:01:00,
2013-03-06 16:06:00,33.8,29.0,30.28,ENE,67,11.4,21.7,80,0.00,,,0.00,Rainwise IP-100,2013-03-06 21:06:00,
2013-03-06 16:11:00,33.8,29.0,30.28,NE,45,7.5,21.0,80,0.00,,,0.00,Rainwise IP-100,2013-03-06 21:11:00,
2013-03-06 16:16:00,33.8,29.0,30.28,ENE,67,12.6,19.8,80,0.00,,,0.00,Rainwise IP-100,2013-03-06 21:16:00,
2013-03-06 16:21:00,33.8,29.0,30.27,ENE,67,17.5,23.8,80,0.00,,,0.00,Rainwise IP-100,2013-03-06 21:21:00,
2013-03-06 16:26:00,33.7,29.0,30.28,ENE,67,10.5,24.2,80,0.00,,,0.00,Rainwise IP-100,2013-03-06 21:26:00,
2013-03-06 16:31:00,33.7,29.0,30.29,ENE,67,10.0,24.2,81,0.00,,,0.00,Rainwise IP-100,2013-03-06 21:31:00,
2013-03-06 16:36:00,33.7,29.0,30.28,ENE,67,15.4,19.1,81,0.00,,,0.00,Rainwise IP-100,2013-03-06 21:36:00,
2013-03-06 16:41:00,33.8,29.0,30.28,ENE,67,14.0,22.6,80,0.00,,,0.00,Rainwise IP-100,2013-03-06 21:41:00,
2013-03-06 16:46:00,33.8,29.0,30.28,ENE,67,23.8,27.3,79,0.00,,,0.00,Rainwise IP-100,2013-03-06 21:46:00,
2013-03-06 16:51:00,33.6,29.0,30.29,ENE,67,16.1,24.7,79,0.00,,,0.00,Rainwise IP-100,2013-03-06 21:51:00,
2013-03-06 16:56:00,33.5,29.0,30.29,ENE,67,9.6,19.4,80,0.00,,,0.00,Rainwise IP-100,2013-03-06 21:56:00,
2013-03-06 17:01:00,33.5,29.0,30.29,ENE,67,16.1,19.6,81,0.00,,,0.00,Rainwise IP-100,2013-03-06 22:01:00,
2013-03-06 17:06:00,33.5,29.0,30.29,ENE,67,13.1,18.2,81,0.00,,,0.00,Rainwise IP-100,2013-03-06 22:06:00,
2013-03-06 17:11:00,33.5,29.0,30.29,ENE,67,11.4,19.1,81,0.00,,,0.00,Rainwise IP-100,2013-03-06 22:11:00,
2013-03-06 17:16:00,33.5,29.0,30.30,NE,45,10.7,18.4,81,0.00,,,0.00,Rainwise IP-100,2013-03-06 22:16:00,
2013-03-06 17:21:00,33.4,29.0,30.29,ESE,112,10.0,20.1,82,0.00,,,0.00,Rainwise IP-100,2013-03-06 22:21:00,
2013-03-06 17:26:00,33.4,28.0,30.30,NE,45,9.6,20.3,81,0.00,,,0.00,Rainwise IP-100,2013-03-06 22:26:00,
2013-03-06 17:31:00,33.5,29.0,30.29,ENE,67,11.0,20.3,81,0.00,,,0.00,Rainwise IP-100,2013-03-06 22:31:00,
2013-03-06 17:36:00,33.5,29.0,30.29,ENE,67,12.1,22.2,80,0.00,,,0.00,Rainwise IP-100,2013-03-06 22:36:00,
2013-03-06 17:41:00,33.6,29.0,30.29,NE,45,8.2,21.9,80,0.00,,,0.00,Rainwise IP-100,2013-03-06 22:41:00,
2013-03-06 17:46:00,33.7,29.0,30.30,ENE,67,11.2,20.5,79,0.00,,,0.00,Rainwise IP-100,2013-03-06 22:46:00,
2013-03-06 17:51:00,33.7,29.0,30.29,ESE,112,6.1,21.0,79,0.00,,,0.00,Rainwise IP-100,2013-03-06 22:51:00,
2013-03-06 17:56:00,33.8,29.0,30.29,ENE,67,11.2,21.2,79,0.00,,,0.00,Rainwise IP-100,2013-03-06 22:56:00,
2013-03-06 18:01:00,33.7,29.0,30.30,East,90,7.0,17.7,79,0.00,,,0.00,Rainwise IP-100,2013-03-06 23:01:00,
2013-03-06 18:06:00,33.7,29.0,30.29,ENE,67,17.7,20.5,79,0.00,,,0.00,Rainwise IP-100,2013-03-06 23:06:00,
2013-03-06 18:11:00,33.6,29.0,30.30,NE,45,20.1,21.0,79,0.00,,,0.00,Rainwise IP-100,2013-03-06 23:11:00,
2013-03-06 18:16:00,33.7,29.0,30.30,ENE,67,17.7,20.1,79,0.00,,,0.00,Rainwise IP-100,2013-03-06 23:16:00,
2013-03-06 18:21:00,33.7,29.0,30.30,ENE,67,7.2,21.5,78,0.00,,,0.00,Rainwise IP-100,2013-03-06 23:21:00,
2013-03-06 18:26:00,33.6,29.0,30.31,NE,45,14.5,21.0,78,0.00,,,0.00,Rainwise IP-100,2013-03-06 23:26:00,
2013-03-06 18:31:00,33.6,29.0,30.31,NE,45,9.1,21.0,79,0.00,,,0.00,Rainwise IP-100,2013-03-06 23:31:00,
2013-03-06 18:36:00,33.6,29.0,30.30,ENE,67,10.3,17.5,79,0.00,,,0.00,Rainwise IP-100,2013-03-06 23:36:00,
2013-03-06 18:41:00,33.7,29.0,30.30,ENE,67,3.3,20.1,79,0.00,,,0.00,Rainwise IP-100,2013-03-06 23:41:00,
2013-03-06 18:46:00,33.8,29.0,30.29,ENE,67,14.5,23.8,78,0.00,,,0.00,Rainwise IP-100,2013-03-06 23:46:00,
2013-03-06 18:51:00,33.7,29.0,30.29,ENE,67,13.8,22.2,78,0.00,,,0.00,Rainwise IP-100,2013-03-06 23:51:00,
2013-03-06 18:56:00,33.7,29.0,30.29,NE,45,8.6,20.8,78,0.00,,,0.00,Rainwise IP-100,2013-03-06 23:56:00,
2013-03-06 19:01:00,33.7,29.0,30.30,East,90,10.3,19.1,78,0.00,,,0.00,Rainwise IP-100,2013-03-07 00:01:00,
2013-03-06 19:06:00,33.7,28.0,30.30,ENE,67,10.0,20.3,77,0.00,,,0.00,Rainwise IP-100,2013-03-07 00:06:00,
2013-03-06 19:11:00,33.7,28.0,30.30,East,90,5.8,18.0,77,0.00,,,0.00,Rainwise IP-100,2013-03-07 00:11:00,
2013-03-06 19:16:00,33.8,28.0,30.31,NNE,22,5.6,16.3,77,0.00,,,0.00,Rainwise IP-100,2013-03-07 00:16:00,
2013-03-06 19:21:00,33.8,28.0,30.30,NE,45,6.3,19.8,77,0.00,,,0.00,Rainwise IP-100,2013-03-07 00:21:00,
2013-03-06 19:26:00,33.8,28.0,30.30,ENE,67,12.6,18.4,76,0.00,,,0.00,Rainwise IP-100,2013-03-07 00:26:00,
2013-03-06 19:31:00,33.8,28.0,30.30,ENE,67,11.2,17.5,76,0.00,,,0.00,Rainwise IP-100,2013-03-07 00:31:00,
2013-03-06 19:36:00,33.8,28.0,30.30,East,90,5.1,18.2,75,0.00,,,0.00,Rainwise IP-100,2013-03-07 00:36:00,
2013-03-06 19:41:00,33.8,28.0,30.30,ENE,67,14.5,21.0,75,0.00,,,0.00,Rainwise IP-100,2013-03-07 00:41:00,
2013-03-06 19:46:00,33.8,28.0,30.29,ENE,67,8.2,24.9,75,0.00,,,0.00,Rainwise IP-100,2013-03-07 00:46:00,
2013-03-06 19:51:00,33.8,28.0,30.30,East,90,5.6,22.4,75,0.00,,,0.00,Rainwise IP-100,2013-03-07 00:51:00,
2013-03-06 19:56:00,33.8,28.0,30.29,ENE,67,14.2,21.2,75,0.00,,,0.00,Rainwise IP-100,2013-03-07 00:56:00,
2013-03-06 20:01:00,33.8,28.0,30.29,ENE,67,16.8,24.0,75,0.00,,,0.00,Rainwise IP-100,2013-03-07 01:01:00,
2013-03-06 20:06:00,33.8,28.0,30.28,NE,45,16.3,27.3,75,0.00,,,0.00,Rainwise IP-100,2013-03-07 01:06:00,
2013-03-06 20:11:00,33.8,28.0,30.29,ENE,67,7.5,20.8,74,0.00,,,0.00,Rainwise IP-100,2013-03-07 01:11:00,
2013-03-06 20:16:00,33.8,28.0,30.29,NE,45,12.8,20.1,74,0.00,,,0.00,Rainwise IP-100,2013-03-07 01:16:00,
2013-03-06 20:21:00,33.8,28.0,30.29,ENE,67,9.6,18.0,74,0.00,,,0.00,Rainwise IP-100,2013-03-07 01:21:00,
2013-03-06 20:26:00,33.8,28.0,30.28,NE,45,9.3,21.7,74,0.00,,,0.00,Rainwise IP-100,2013-03-07 01:26:00,
2013-03-06 20:31:00,33.8,28.0,30.28,NNE,22,7.0,18.7,74,0.00,,,0.00,Rainwise IP-100,2013-03-07 01:31:00,
2013-03-06 20:36:00,33.8,28.0,30.28,ENE,67,13.1,20.8,74,0.00,,,0.00,Rainwise IP-100,2013-03-07 01:36:00,
2013-03-06 20:41:00,33.8,28.0,30.27,SSE,157,3.0,20.5,74,0.00,,,0.00,Rainwise IP-100,2013-03-07 01:41:00,
2013-03-06 20:46:00,33.8,28.0,30.28,NNE,22,11.7,18.9,74,0.00,,,0.00,Rainwise IP-100,2013-03-07 01:46:00,
2013-03-06 20:51:00,33.8,28.0,30.27,ENE,67,10.5,15.9,74,0.00,,,0.00,Rainwise IP-100,2013-03-07 01:51:00,
2013-03-06 20:56:00,33.8,28.0,30.28,NNE,22,9.8,20.3,74,0.00,,,0.00,Rainwise IP-100,2013-03-07 01:56:00,
2013-03-06 21:01:00,33.8,28.0,30.27,ENE,67,5.8,22.4,73,0.00,,,0.00,Rainwise IP-100,2013-03-07 02:01:00,
2013-03-06 21:06:00,33.8,28.0,30.28,ENE,67,10.0,23.3,73,0.00,,,0.00,Rainwise IP-100,2013-03-07 02:06:00,
2013-03-06 21:11:00,33.8,28.0,30.28,ENE,67,11.4,23.1,74,0.00,,,0.00,Rainwise IP-100,2013-03-07 02:11:00,
2013-03-06 21:16:00,33.8,28.0,30.28,ENE,67,8.2,20.1,74,0.00,,,0.00,Rainwise IP-100,2013-03-07 02:16:00,
2013-03-06 21:21:00,33.8,28.0,30.28,NE,45,13.3,17.0,74,0.00,,,0.00,Rainwise IP-100,2013-03-07 02:21:00,
2013-03-06 21:26:00,33.8,28.0,30.28,NE,45,12.1,16.6,74,0.00,,,0.00,Rainwise IP-100,2013-03-07 02:26:00,
2013-03-06 21:31:00,33.7,28.0,30.28,ENE,67,5.4,16.8,73,0.00,,,0.00,Rainwise IP-100,2013-03-07 02:31:00,
2013-03-06 21:36:00,33.7,28.0,30.28,North,360,4.9,15.2,74,0.00,,,0.00,Rainwise IP-100,2013-03-07 02:36:00,
2013-03-06 21:41:00,33.5,28.0,30.28,ENE,67,2.8,15.9,74,0.00,,,0.00,Rainwise IP-100,2013-03-07 02:41:00,
2013-03-06 21:46:00,33.3,26.0,30.27,ENE,67,5.6,14.9,75,0.00,,,0.00,Rainwise IP-100,2013-03-07 02:46:00,
2013-03-06 21:51:00,33.1,26.0,30.26,NE,45,16.1,16.8,75,0.00,,,0.00,Rainwise IP-100,2013-03-07 02:51:00,
2013-03-06 21:56:00,33.1,26.0,30.27,ENE,67,8.6,21.5,75,0.00,,,0.00,Rainwise IP-100,2013-03-07 02:56:00,
2013-03-06 22:02:00,33.1,26.0,30.27,NE,45,6.3,19.4,75,0.00,,,0.00,Rainwise IP-100,2013-03-07 03:02:00,
2013-03-06 22:07:00,33.0,26.0,30.27,ENE,67,9.6,15.9,75,0.00,,,0.00,Rainwise IP-100,2013-03-07 03:07:00,
2013-03-06 22:12:00,33.0,26.0,30.27,NE,45,8.6,16.6,76,0.00,,,0.00,Rainwise IP-100,2013-03-07 03:12:00,
2013-03-06 22:17:00,32.9,26.0,30.26,NNE,22,6.1,18.0,75,0.00,,,0.00,Rainwise IP-100,2013-03-07 03:17:00,
2013-03-06 22:22:00,32.9,26.0,30.26,ENE,67,6.5,20.8,76,0.00,,,0.00,Rainwise IP-100,2013-03-07 03:22:00,
2013-03-06 22:27:00,32.9,26.0,30.26,NE,45,11.4,16.1,76,0.00,,,0.00,Rainwise IP-100,2013-03-07 03:27:00,
2013-03-06 22:32:00,32.9,26.0,30.26,ENE,67,5.4,21.2,76,0.00,,,0.00,Rainwise IP-100,2013-03-07 03:32:00,
2013-03-06 22:37:00,32.8,26.0,30.26,ENE,67,3.0,18.0,76,0.00,,,0.00,Rainwise IP-100,2013-03-07 03:37:00,
2013-03-06 22:42:00,32.8,26.0,30.26,East,90,12.8,19.1,76,0.00,,,0.00,Rainwise IP-100,2013-03-07 03:42:00,
2013-03-06 22:47:00,32.8,26.0,30.26,ENE,67,14.7,16.6,76,0.00,,,0.00,Rainwise IP-100,2013-03-07 03:47:00,
2013-03-06 22:52:00,32.8,26.0,30.25,NNE,22,6.8,20.3,76,0.00,,,0.00,Rainwise IP-100,2013-03-07 03:52:00,
2013-03-06 22:57:00,32.8,26.0,30.25,NNE,22,7.7,18.4,76,0.00,,,0.00,Rainwise IP-100,2013-03-07 03:57:00,
2013-03-06 23:02:00,32.7,26.0,30.25,NNE,22,7.9,17.3,76,0.00,,,0.00,Rainwise IP-100,2013-03-07 04:02:00,
2013-03-06 23:07:00,32.7,26.0,30.25,ENE,67,10.3,15.4,76,0.00,,,0.00,Rainwise IP-100,2013-03-07 04:07:00,
2013-03-06 23:12:00,32.7,28.0,30.26,ENE,67,4.7,15.2,77,0.00,,,0.00,Rainwise IP-100,2013-03-07 04:12:00,
2013-03-06 23:17:00,32.7,28.0,30.25,ENE,67,5.8,15.9,77,0.00,,,0.00,Rainwise IP-100,2013-03-07 04:17:00,
2013-03-06 23:22:00,32.6,28.0,30.25,ENE,67,7.2,16.3,77,0.00,,,0.00,Rainwise IP-100,2013-03-07 04:22:00,
2013-03-06 23:27:00,32.7,28.0,30.25,ENE,67,5.4,17.7,77,0.00,,,0.00,Rainwise IP-100,2013-03-07 04:27:00,
2013-03-06 23:32:00,32.8,28.0,30.26,ENE,67,10.5,17.0,77,0.00,,,0.00,Rainwise IP-100,2013-03-07 04:32:00,
2013-03-06 23:37:00,32.7,26.0,30.26,NNE,22,9.8,15.9,76,0.00,,,0.00,Rainwise IP-100,2013-03-07 04:37:00,
2013-03-06 23:42:00,32.7,28.0,30.26,ENE,67,13.1,18.0,77,0.00,,,0.00,Rainwise IP-100,2013-03-07 04:42:00,
2013-03-06 23:47:00,32.7,28.0,30.26,ENE,67,14.5,18.4,77,0.00,,,0.00,Rainwise IP-100,2013-03-07 04:47:00,
2013-03-06 23:52:00,32.7,28.0,30.26,ENE,67,14.0,19.6,77,0.00,,,0.00,Rainwise IP-100,2013-03-07 04:52:00,
2013-03-06 23:57:00,32.7,28.0,30.26,ENE,67,15.2,16.1,77,0.00,,,0.00,Rainwise IP-100,2013-03-07 04:57:00,